Waarnemingen

Advertentie
Mijn weer
Arkona, Duitsland (10091): temperatuur & dauwpunt: 20.03.2017 00:00:00 - 26.03.2017 00:00:00 (CET)Arkona, Duitsland (10091): temperatuur 5cm & temperatuur -5cm: 20.03.2017 00:00:00 - 26.03.2017 00:00:00 (CET)Arkona, Duitsland (10091): temperatuur -20cm & temperatuur -100cm: 20.03.2017 00:00:00 - 26.03.2017 00:00:00 (CET)Arkona, Duitsland (10091): windsnelheid & windstoten: 20.03.2017 00:00:00 - 26.03.2017 00:00:00 (CET)Arkona, Duitsland (10091): windrichting: 20.03.2017 00:00:00 - 26.03.2017 00:00:00 (CET)Arkona, Duitsland (10091): luchtdruk: 20.03.2017 00:00:00 - 26.03.2017 00:00:00 (CET)Arkona, Duitsland (10091): zicht: 20.03.2017 00:00:00 - 26.03.2017 00:00:00 (CET)Arkona, Duitsland (10091): Zonneschijnduur: 20.03.2017 00:00:00 - 26.03.2017 00:00:00 (CET)Arkona, Duitsland (10091): neerslag: 20.03.2017 00:00:00 - 26.03.2017 00:00:00 (CET)
Datum & Tijd tt [°C] td [°C] tt 5cm [°C] tt -5cm [°C] tt -20cm [°C] tt -100cm [°C] ff [km/u] ff [kn] fx [km/u] fx [kn] dd ppp [hPa] vv [km] sd [min] rr [mm]
26.03.2017 00:00:00 4,5 1,4 3,0 3,2 5,8 5,7 19 11 27 15 NNW 1025,7 29 0 0,0
25.03.2017 23:00:00 4,9 1,5 3,0 3,5 6,0 5,7 20 11 27 15 NNW 1025,6 29 0 0,0
25.03.2017 22:00:00 4,5 1,6 2,7 3,9 6,3 5,7 18 10 25 14 NW 1025,4 27 0 0,0
25.03.2017 21:00:00 4,9 1,7 3,3 4,5 6,5 5,7 18 10 30 16 NW 1025,0 28 0 0,0
25.03.2017 20:00:00 5,2 1,5 3,4 5,1 6,8 5,7 18 10 27 15 WNW 1024,9 29 0 0,0
25.03.2017 19:00:00 5,5 1,6 4,0 6,1 6,9 5,7 18 10 31 17 WNW 1025,2 33 0 0,0
25.03.2017 18:00:00 6,0 1,9 5,4 7,4 7,0 5,7 20 11 29 16 WNW 1025,4 31 0 0,0
25.03.2017 17:00:00 6,4 2,1 6,4 8,9 6,8 5,7 18 10 33 18 WNW 1025,4 33 25 0,0
25.03.2017 16:00:00 7,0 2,5 8,4 10,0 6,6 5,7 20 11 34 19 WNW 1026,0 28 60 0,0
25.03.2017 15:00:00 7,0 2,7 9,4 10,7 6,2 5,7 23 12 37 20 WNW 1026,4 25 60 0,0
25.03.2017 14:00:00 7,3 3,5 10,5 10,3 5,7 5,7 25 14 40 22 WNW 1026,7 26 60 0,0
25.03.2017 13:00:00 6,9 3,2 9,7 8,8 5,4 5,7 32 18 41 22 W 1027,2 25 36 0,0
25.03.2017 12:00:00 5,8 3,4 7,3 7,3 5,2 5,7 29 16 40 22 W 1027,7 23 1 0,0
25.03.2017 11:00:00 5,4 3,2 6,7 7,0 4,9 5,7 32 17 42 23 W 1027,9 21 23 0,0
25.03.2017 10:00:00 5,0 3,2 6,4 5,8 4,8 5,7 29 16 40 22 W 1028,3 19 7 0,0
25.03.2017 09:00:00 4,3 2,9 4,6 4,6 4,8 5,7 22 12 36 19 WNW 1028,4 21 0 0,0
25.03.2017 08:00:00 4,2 2,9 4,6 4,1 4,8 5,7 28 15 41 22 W 1028,4 23 0 0,0
25.03.2017 07:00:00 3,7 2,4 3,3 3,4 4,9 5,7 32 17 41 22 W 1028,3 25 0 0,0
25.03.2017 06:00:00 3,9 2,4 3,3 3,3 5,0 5,7 33 18 43 23 W 1028,7 25 0 0,0
25.03.2017 05:00:00 4,0 1,8 3,3 3,4 5,1 5,7 29 16 38 21 W 1029,2 38 0 0,0
25.03.2017 04:00:00 4,1 1,3 3,3 3,5 5,2 5,7 23 13 36 19 W 1029,6 45 0 0,0
25.03.2017 03:00:00 4,7 0,2 4,1 3,8 5,3 5,7 24 13 37 20 NW 1030,4 57 0 0,0
25.03.2017 02:00:00 4,7 1,3 4,0 3,8 5,4 5,7 21 11 29 15 WNW 1030,5 36 0 0,0
25.03.2017 01:00:00 4,8 1,1 4,2 3,8 5,5 5,7 22 12 37 20 WNW 1030,9 40 0 0,0
25.03.2017 00:00:00 5,6 -0,6 4,8 3,6 5,7 5,7 27 15 37 20 W 1031,1 61 0 0,0
24.03.2017 23:00:00 3,7 0,8 2,6 3,7 6,0 5,7 22 12 29 15 W 1031,3 32 0 0,0
24.03.2017 22:00:00 3,8 1,0 2,9 4,1 6,2 5,7 20 11 30 16 W 1031,5 26 0 0,0
24.03.2017 21:00:00 4,7 0,3 3,6 4,2 6,5 5,7 23 12 29 16 W 1031,8 36 0 0,0
24.03.2017 20:00:00 3,5 1,4 2,7 4,8 6,8 5,7 21 11 26 14 W 1031,6 25 0 0,0
24.03.2017 19:00:00 3,8 1,4 2,9 5,6 7,0 5,7 24 13 27 15 W 1031,7 24 0 0,0
24.03.2017 18:00:00 4,5 1,5 3,5 7,1 7,2 5,7 19 11 23 12 W 1031,9 24 41 0,0
24.03.2017 17:00:00 6,3 0,8 6,7 8,7 7,1 5,7 20 11 27 15 W 1032,2 29 60 0,0
24.03.2017 16:00:00 6,3 -2,3 8,5 10,8 6,8 5,7 18 10 25 14 W 1032,5 31 60 0,0
24.03.2017 15:00:00 5,7 0,5 8,8 12,0 6,4 5,7 18 10 24 13 WNW 1032,3 55 60 0,0
24.03.2017 14:00:00 5,2 0,1 9,4 12,3 5,7 5,7 16 9 23 12 WNW 1032,1 60 60 0,0
24.03.2017 13:00:00 5,2 0,7 9,2 11,8 5,1 5,7 10 5 19 10 WNW 1032,2 50 60 0,0
24.03.2017 12:00:00 4,9 1,2 8,4 10,2 4,5 5,7 13 7 20 11 NW 1032,5 50 60 0,0
24.03.2017 11:00:00 4,6 1,0 7,6 8,0 4,1 5,7 17 9 25 13 NW 1032,0 50 60 0,0
24.03.2017 10:00:00 3,9 1,2 5,2 5,2 3,8 5,7 18 10 29 15 NW 1031,9 50 52 0,0
24.03.2017 09:00:00 3,9 1,6 4,6 4,0 3,7 5,7 16 9 21 11 NW 1031,3 50 60 0,0
24.03.2017 08:00:00 4,0 1,2 3,0 1,8 3,8 5,7 14 7 23 13 NNW 1030,7 50 60 0,0
24.03.2017 07:00:00 2,8 0,9 1,4 1,0 4,0 5,7 14 8 26 14 NNW 1029,9 40 41 0,0
24.03.2017 06:00:00 2,6 0,4 0,9 1,1 4,2 5,7 13 7 26 14 NNW 1029,2 40 0 0,0
24.03.2017 05:00:00 2,7 0,5 0,5 1,3 4,4 5,7 9 5 19 10 NNW 1028,4 47 0 0,0
24.03.2017 04:00:00 3,1 0,4 1,5 1,7 4,6 5,7 12 7 23 13 NNW 1027,9 49 0 0,0
24.03.2017 03:00:00 3,4 1,7 1,6 2,1 4,7 5,7 16 8 28 15 NNW 1027,5 41 0 0,0
24.03.2017 02:00:00 3,9 1,3 2,3 2,3 5,0 5,7 16 9 29 15 NNW 1027,2 39 0 0,0
24.03.2017 01:00:00 4,2 1,8 2,5 2,4 5,2 5,7 16 9 26 14 NNW 1026,7 27 0 0,0
24.03.2017 00:00:00 4,2 -0,3 1,2 3,0 5,4 5,7 14 8 24 13 N 1026,6 43 0 0,0
23.03.2017 23:00:00 4,5 1,0 2,7 3,6 5,6 5,7 14 7 19 10 N 1026,4 28 0 0,0
23.03.2017 22:00:00 6,3 -1,1 4,5 4,2 5,8 5,7 14 8 18 10 ONO 1025,9 44 0 0,0
23.03.2017 21:00:00 4,8 1,0 3,6 4,3 6,0 5,7 15 8 19 11 ONO 1025,6 32 0 0,0
23.03.2017 20:00:00 5,0 0,1 3,5 5,1 6,1 5,7 13 7 17 9 NNO 1025,0 38 0 0,0
23.03.2017 19:00:00 5,5 0,0 4,6 5,9 6,2 5,7 14 8 19 11 NO 1024,5 43 0 0,0
23.03.2017 18:00:00 5,5 0,3 5,1 6,5 6,3 5,7 8 4 23 12 NO 1023,8 38 0 0,0
23.03.2017 17:00:00 5,7 0,6 5,6 7,2 6,2 5,7 18 10 36 19 O 1023,4 42 0 0,0
23.03.2017 16:00:00 5,0 2,2 5,5 8,2 6,1 5,7 26 14 30 16 NO 1023,3 25 0 0,0
23.03.2017 15:00:00 5,2 2,3 6,2 8,8 5,8 5,7 18 10 23 12 ONO 1023,7 25 0 0,0
23.03.2017 14:00:00 5,5 2,5 6,8 9,8 5,4 5,7 21 11 27 14 ONO 1023,5 24 12 0,0
23.03.2017 13:00:00 5,7 2,7 9,0 10,2 4,8 5,7 19 10 23 12 ONO 1023,7 20 29 0,0
23.03.2017 12:00:00 5,7 2,3 9,8 8,5 4,4 5,6 13 7 22 12 O 1024,1 25 33 0,0
23.03.2017 11:00:00 5,4 1,9 6,8 6,5 4,1 5,6 14 8 23 13 OZO 1024,1 35 0 0,0
23.03.2017 10:00:00 5,2 2,2 5,7 5,3 3,9 5,6 16 8 27 15 OZO 1024,0 30 0 0,0
23.03.2017 09:00:00 5,2 2,1 5,7 3,9 3,8 5,6 18 10 25 14 OZO 1023,7 30 0 0,0
23.03.2017 08:00:00 4,2 2,4 4,0 2,5 3,8 5,6 15 8 21 12 OZO 1023,5 30 0 0,0
23.03.2017 07:00:00 3,7 2,0 2,5 1,4 3,9 5,6 13 7 21 11 O 1023,0 30 0 0,0
23.03.2017 06:00:00 3,5 1,4 1,4 1,2 4,0 5,6 14 7 20 11 O 1022,7 35 0 0,0
23.03.2017 05:00:00 4,0 1,2 2,2 1,3 4,2 5,6 15 8 23 12 OZO 1022,3 39 0 0,0
23.03.2017 04:00:00 4,4 0,5 2,3 1,4 4,4 5,6 21 11 24 13 OZO 1022,2 55 0 0,0
23.03.2017 03:00:00 5,1 -0,7 3,0 1,4 4,6 5,6 16 9 21 11 OZO 1022,3 54 0 0,0
23.03.2017 02:00:00 6,5 -2,2 3,0 1,6 4,8 5,6 8 4 19 10 ZZO 1022,2 63 0 0,0
23.03.2017 01:00:00 7,0 -3,0 2,9 1,8 5,1 5,6 6 4 10 5 ZZO 1022,0 62 0 0,0
23.03.2017 00:00:00 6,5 -2,6 1,5 2,1 5,4 5,6 8 5 11 6 ZZO 1021,9 65 0 0,0
22.03.2017 23:00:00 6,3 -1,5 2,9 2,7 5,7 5,6 9 5 14 8 Z 1021,6 49 0 0,0
22.03.2017 22:00:00 6,4 -1,3 4,2 3,1 6,0 5,6 11 6 18 10 Z 1021,3 47 0 0,0
22.03.2017 21:00:00 5,9 0,0 4,0 3,5 6,3 5,6 15 8 18 10 Z 1020,9 44 0 0,0
22.03.2017 20:00:00 5,1 -0,3 1,8 4,4 6,6 5,6 11 6 16 9 ZW 1020,3 34 0 0,0
22.03.2017 19:00:00 5,6 -0,1 2,3 5,5 6,9 5,6 15 8 23 12 W 1019,7 36 19 0,0
22.03.2017 18:00:00 7,3 0,1 6,4 7,0 7,0 5,6 22 12 30 16 W 1018,9 41 60 0,0
22.03.2017 17:00:00 8,5 -0,5 8,1 8,4 7,0 5,6 26 14 35 19 W 1018,4 36 60 0,0
22.03.2017 16:00:00 9,5 -0,9 10,4 10,0 6,8 5,6 27 14 41 22 W 1018,3 24 60 0,0
22.03.2017 15:00:00 9,1 0,6 10,7 10,9 6,4 5,6 35 19 41 22 W 1018,1 35 60 0,0
22.03.2017 14:00:00 8,2 1,2 9,7 10,9 5,9 5,6 33 18 41 22 W 1017,9 30 60 0,0
22.03.2017 13:00:00 8,1 2,0 10,6 10,9 5,4 5,5 33 18 40 22 W 1017,6 30 60 0,0
22.03.2017 12:00:00 8,9 2,4 11,5 10,4 4,8 5,5 30 16 44 24 WZW 1017,2 28 60 0,0
22.03.2017 11:00:00 7,2 0,6 9,3 8,4 4,3 5,5 32 17 43 23 WZW 1016,8 30 60 0,0
22.03.2017 10:00:00 6,3 0,6 8,0 6,1 4,0 5,5 31 17 42 23 WZW 1016,3 30 60 0,0
22.03.2017 09:00:00 5,8 0,5 6,6 3,5 3,9 5,5 28 15 37 20 WZW 1015,5 35 60 0,0
22.03.2017 08:00:00 3,7 0,2 2,5 1,5 4,0 5,5 26 14 35 19 ZW 1014,6 35 60 0,0
22.03.2017 07:00:00 2,4 -0,5 1,1 1,0 4,3 5,5 30 16 36 20 WZW 1014,2 35 32 0,0
22.03.2017 06:00:00 1,8 -0,4 0,2 1,2 4,5 5,5 29 16 42 23 ZW 1013,8 30 0 0,0
22.03.2017 05:00:00 3,1 -0,2 1,3 1,5 4,7 5,5 32 17 41 22 WZW 1013,1 40 0 0,0
22.03.2017 04:00:00 2,6 0,2 1,2 1,9 4,9 5,5 29 16 41 22 WZW 1012,7 32 0 0,0
22.03.2017 03:00:00 3,8 0,3 2,3 2,2 5,1 5,5 33 18 47 26 WZW 1012,3 36 0 0,0
22.03.2017 02:00:00 3,7 0,4 2,3 2,5 5,4 5,5 36 19 50 27 WZW 1011,8 30 0 0,0
22.03.2017 01:00:00 3,6 0,8 2,4 2,7 5,6 5,5 36 19 51 28 W 1011,4 25 0 0,0
22.03.2017 00:00:00 4,0 0,3 2,8 3,0 5,9 5,4 41 22 54 29 WZW 1010,5 29 0 0,0
21.03.2017 23:00:00 4,0 0,4 3,1 3,4 6,2 5,4 40 22 55 30 W 1010,2 26 0 0,0
21.03.2017 22:00:00 4,6 0,0 3,8 3,8 6,5 5,4 44 24 55 30 W 1009,1 30 0 0,0
21.03.2017 21:00:00 4,8 0,2 4,0 4,2 6,9 5,4 43 23 57 31 W 1008,5 32 0 0,0
21.03.2017 20:00:00 5,2 0,5 4,4 4,8 7,2 5,4 41 22 58 31 W 1007,8 33 0 0,0
21.03.2017 19:00:00 5,6 0,8 4,8 5,8 7,5 5,4 44 24 61 33 W 1006,6 36 0 0,0
21.03.2017 18:00:00 5,9 2,1 5,3 7,0 7,8 5,4 40 22 51 28 W 1005,7 37 26 0,0
21.03.2017 17:00:00 6,2 2,3 6,0 8,0 8,0 5,4 39 21 50 27 WZW 1005,0 57 0 0,0
21.03.2017 16:00:00 6,4 3,3 5,8 9,2 8,0 5,4 39 21 56 31 W 1004,5 57 1 0,0
21.03.2017 15:00:00 6,2 2,3 6,5 12,5 7,7 5,4 42 23 71 39 W 1004,3 57 28 0,0
21.03.2017 14:00:00 12,1 3,0 14,4 13,6 7,1 5,4 38 21 49 26 WZW 1003,1 29 60 0,0
21.03.2017 13:00:00 11,4 2,4 14,0 13,0 6,6 5,4 34 18 53 29 WZW 1003,6 15 60 0,0
21.03.2017 12:00:00 8,9 2,6 10,8 11,6 6,1 5,4 37 20 52 28 WZW 1003,5 11 60 0,0
21.03.2017 11:00:00 8,3 4,3 10,3 10,0 5,7 5,4 39 21 52 28 WZW 1003,4 9 60 0,0
21.03.2017 10:00:00 7,8 4,7 9,4 8,1 5,5 5,4 41 22 57 31 WZW 1003,0 10 60 0,0
21.03.2017 09:00:00 7,2 4,7 7,9 5,9 5,4 5,4 35 19 48 26 WZW 1002,5 19 60 0,0
21.03.2017 08:00:00 6,4 4,4 5,6 4,5 5,6 5,4 32 17 42 23 WZW 1002,0 21 60 0,0
21.03.2017 07:00:00 5,4 3,9 4,0 4,4 5,7 5,4 30 16 48 26 WZW 1001,5 28 26 0,0
21.03.2017 06:00:00 5,1 4,0 4,2 4,6 5,9 5,4 36 19 45 24 W 1000,8 22 0 0,0
21.03.2017 05:00:00 5,1 4,2 4,4 5,1 6,0 5,4 37 20 46 25 W 1000,2 22 0 0,0
21.03.2017 04:00:00 5,9 4,8 5,6 5,7 6,2 5,4 35 19 55 30 W 999,7 26 0 0,0
21.03.2017 03:00:00 6,7 5,0 6,4 5,9 6,3 5,4 43 23 59 32 W 998,9 35 0 0,0
21.03.2017 02:00:00 6,4 4,8 5,7 6,3 6,4 5,4 46 25 72 39 W 998,5 26 0 0,0
21.03.2017 01:00:00 7,8 5,8 7,1 7,3 6,4 5,4 56 30 81 44 W 997,4 21 0 0,1
21.03.2017 00:00:00 9,5 8,4 8,8 7,7 6,3 5,4 50 27 74 40 WZW 996,4 6 0 0,1
20.03.2017 23:00:00 8,8 8,6 8,6 7,7 6,2 5,4 39 21 48 26 ZW 996,9 5 0 1,0
20.03.2017 22:00:00 9,0 8,9 8,8 7,6 6,1 5,4 35 19 50 27 ZW 998,0 2,5 0 2,6
20.03.2017 21:00:00 9,0 8,9 8,7 7,4 6,0 5,4 33 18 42 23 ZW 998,7 1,6 0 1,8
20.03.2017 20:00:00 8,8 8,7 8,5 7,0 6,0 5,4 30 16 38 21 ZW 999,2 2,8 0 0,1
20.03.2017 19:00:00 7,9 7,9 7,7 6,6 6,1 5,4 20 11 29 16 ZW 1000,2 3,6 0 1,5
20.03.2017 18:00:00 5,3 5,3 5,5 6,6 6,1 5,4 18 10 29 16 ZZO 1001,0 0,3 0 3,1
20.03.2017 17:00:00 4,8 4,6 5,2 7,2 6,0 5,4 19 11 28 15 ZO 1001,8 4,1 0 0,6
20.03.2017 16:00:00 4,9 4,4 5,4 8,2 5,8 5,4 18 10 22 12 ZO 1002,7 3,5 0 0,8
20.03.2017 15:00:00 7,6 6,9 8,1 8,6 5,6 5,4 9 5 19 11 ZW 1003,3 4,8 0 0,4
20.03.2017 14:00:00 7,5 5,6 8,6 8,7 5,3 5,4 16 8 27 15 WZW 1003,7 24 0 0,0
20.03.2017 13:00:00 7,1 5,0 8,5 8,0 5,1 5,4 18 10 30 16 WZW 1003,9 28 0 0,0
20.03.2017 12:00:00 5,8 4,4 6,8 7,0 4,9 5,4 22 12 32 18 W 1004,2 23 0 0,0
20.03.2017 11:00:00 5,7 4,2 6,6 6,5 4,7 5,4 20 11 31 17 WZW 1004,1 38 0 0,0
20.03.2017 10:00:00 5,8 3,4 6,5 6,0 4,6 5,4 19 10 33 18 W 1003,7 61 0 0,0
20.03.2017 09:00:00 5,4 3,9 5,6 5,4 4,5 5,4 23 12 34 18 W 1003,5 51 0 0,0
20.03.2017 08:00:00 5,5 3,8 5,6 5,0 4,4 5,4 29 16 39 21 W 1003,4 61 0 0,0
20.03.2017 07:00:00 5,5 3,9 5,3 4,7 4,4 5,4 29 16 46 25 W 1002,6 53 0 0,0
20.03.2017 06:00:00 5,4 4,2 5,2 4,8 4,3 5,4 38 20 49 26 W 1001,7 43 0 0,0
20.03.2017 05:00:00 5,4 5,2 5,3 5,0 4,2 5,4 41 22 52 28 W 1001,1 4,4 0 0,0
20.03.2017 04:00:00 5,7 5,4 5,6 4,9 4,1 5,4 37 20 48 26 W 1000,3 18 0 0,0
20.03.2017 03:00:00 5,5 5,4 5,4 4,8 4,0 5,4 37 20 51 28 W 999,5 0,3 0 0,0
20.03.2017 02:00:00 5,6 5,5 5,6 4,6 3,8 5,4 44 24 60 33 W 999,0 0,5 0 0,2
20.03.2017 01:00:00 6,0 5,8 5,9 4,1 3,7 5,4 44 24 54 29 W 998,2 2,0 0 0,2
20.03.2017 00:00:00 4,1 4,1 4,0 3,2 3,8 5,4 21 12 27 15 WZW 998,1 1,2 0 1,3

tt = temperatuur
td = dauwpunt
tt 5cm = temperatuur 5cm
tt -5cm = temperatuur -5cm
tt -20cm = temperatuur -20cm
tt -100cm = temperatuur -100cm
ff = windsnelheid
fx = windstoten
dd = windrichting
ppp = luchtdruk
vv = zicht
sd = Zonneschijnduur
rr = neerslag

Weerstations in de omgeving